Location: Campillo
(40.8621°N, 4.2488°W)
Time: 17:05:39
(UTC+00:00)

Cosmos 158 Rocket - Pass Details

Date: 03 October 2021
Orbit: 699 x 792 km, 74.0° (Epoch: 24 October)

Event Time Altitude Azimuth Distance (km) Brightness Sun altitude
Rises 18:51:34 0° 338° (NNW) 3,129 7.5 -11.4°
Reaches altitude 10° 18:53:56 10° 336° (NNW) 2,194 6.8 -11.9°
Maximum altitude 18:58:50 69° 254° (WSW) 753 4.2 -12.8°
Drops below altitude 10° 19:03:39 10° 171° (S) 2,154 6.2 -13.7°
Sets 19:05:57 0° 169° (S) 3,067 6.9 -14.1°
